• In Hungary
  • List of Countries
  • For 7 days
  • Water Temperature
  • Satellite Maps
  • Weather Map
  • News
  • Weather Widgets
  • user-avatar
    Login

    Hourly Weather Poluzevo

    Today, 15 August, Wednesday

    Time Temperature Precipitation Wind Pressure Humidity
    00:00 +14°C° 0 mm 1 mps 748 mmHg 83%
    01:00 +13°C° 0 mm 1 mps 748 mmHg 84%
    02:00 +13°C° 0 mm 1 mps 748 mmHg 85%
    03:00 +13°C° 0 mm 1 mps 747 mmHg 86%
    04:00 +13°C° 0 mm 2 mps 747 mmHg 85%
    05:00 +13°C° 0 mm 2 mps 747 mmHg 85%
    06:00 +14°C° 0 mm 2 mps 747 mmHg 85%
    07:00 +15°C° 0.1 mm 2 mps 746 mmHg 82%
    08:00 +17°C° 0.1 mm 2 mps 746 mmHg 79%
    09:00 +19°C° 0.1 mm 3 mps 746 mmHg 75%
    10:00 +19°C° 0.6 mm 3 mps 745 mmHg 76%
    11:00 +20°C° 0.6 mm 3 mps 745 mmHg 77%
    12:00 +21°C° 0.6 mm 3 mps 744 mmHg 78%
    13:00 +21°C° 1.1 mm 3 mps 744 mmHg 81%
    14:00 +21°C° 1.1 mm 4 mps 744 mmHg 84%
    15:00 +21°C° 1.1 mm 4 mps 743 mmHg 86%
    16:00 +21°C° 1.5 mm 4 mps 743 mmHg 88%
    17:00 +21°C° 1.5 mm 4 mps 743 mmHg 89%
    18:00 +20°C° 1.5 mm 4 mps 743 mmHg 91%
    19:00 +19°C° 0.3 mm 3 mps 743 mmHg 93%
    20:00 +19°C° 0.3 mm 3 mps 743 mmHg 95%
    21:00 +18°C° 0.3 mm 2 mps 743 mmHg 97%
    22:00 +17°C° 0.1 mm 2 mps 743 mmHg 97%
    23:00 +17°C° 0.1 mm 2 mps 744 mmHg 97%

    Tomorrow, 16 August, Thursday

    Time Temperature Precipitation Wind Pressure Humidity
    00:00 +16°C° 0.1 mm 2 mps 744 mmHg 97%
    01:00 +16°C° 0 mm 2 mps 744 mmHg 97%
    02:00 +16°C° 0 mm 2 mps 745 mmHg 97%
    03:00 +15°C° 0 mm 2 mps 745 mmHg 97%
    04:00 +15°C° 0 mm 2 mps 745 mmHg 97%
    05:00 +14°C° 0 mm 2 mps 746 mmHg 96%
    06:00 +14°C° 0 mm 2 mps 746 mmHg 96%
    07:00 +15°C° 0 mm 2 mps 747 mmHg 92%
    08:00 +16°C° 0 mm 2 mps 747 mmHg 88%
    09:00 +16°C° 0 mm 2 mps 748 mmHg 84%
    10:00 +18°C° 0 mm 2 mps 748 mmHg 77%
    11:00 +19°C° 0 mm 2 mps 748 mmHg 69%
    12:00 +20°C° 0 mm 2 mps 749 mmHg 61%
    13:00 +21°C° 0 mm 2 mps 749 mmHg 59%
    14:00 +21°C° 0 mm 2 mps 749 mmHg 57%
    15:00 +23°C° 0 mm 2 mps 749 mmHg 54%
    16:00 +23°C° 0 mm 2 mps 749 mmHg 58%
    17:00 +21°C° 0 mm 2 mps 750 mmHg 61%
    18:00 +21°C° 0 mm 2 mps 750 mmHg 64%
    19:00 +19°C° 0 mm 2 mps 750 mmHg 70%
    20:00 +18°C° 0 mm 1 mps 751 mmHg 75%
    21:00 +15°C° 0 mm 1 mps 751 mmHg 81%
    22:00 +15°C° 0 mm 1 mps 751 mmHg 83%
    23:00 +14°C° 0 mm 1 mps 752 mmHg 85%

    Day after tomorrow, 17 August, Friday

    Time Temperature Precipitation Wind Pressure Humidity
    00:00 +14°C° 0 mm 1 mps 752 mmHg 87%
    01:00 +13°C° 0 mm 1 mps 752 mmHg 88%
    02:00 +13°C° 0 mm 1 mps 753 mmHg 89%
    03:00 +12°C° 0 mm 1 mps 753 mmHg 89%
    04:00 +12°C° 0 mm 1 mps 753 mmHg 88%
    05:00 +12°C° 0 mm 1 mps 753 mmHg 88%
    06:00 +12°C° 0 mm 1 mps 754 mmHg 87%
    07:00 +15°C° 0 mm 1 mps 754 mmHg 78%
    08:00 +18°C° 0 mm 1 mps 754 mmHg 70%
    09:00 +20°C° 0 mm 1 mps 755 mmHg 62%
    10:00 +21°C° 0 mm 1 mps 755 mmHg 57%
    11:00 +22°C° 0 mm 1 mps 755 mmHg 52%
    12:00 +23°C° 0 mm 1 mps 755 mmHg 47%
    13:00 +24°C° 0 mm 1 mps 755 mmHg 46%
    14:00 +24°C° 0 mm 1 mps 754 mmHg 45%
    15:00 +24°C° 0 mm 1 mps 754 mmHg 44%
    16:00 +24°C° 0 mm 1 mps 754 mmHg 49%
    17:00 +23°C° 0 mm 1 mps 754 mmHg 53%
    18:00 +23°C° 0 mm 1 mps 754 mmHg 58%
    19:00 +21°C° 0 mm 1 mps 754 mmHg 63%
    20:00 +19°C° 0 mm 1 mps 754 mmHg 67%
    21:00 +15°C° 0 mm 1 mps 754 mmHg 72%
    22:00 +15°C° 0 mm 1 mps 755 mmHg 74%
    23:00 +14°C° 0 mm 1 mps 755 mmHg 76%

    18 August, Saturday

    Time Temperature Precipitation Wind Pressure Humidity
    00:00 +13°C° 0 mm 1 mps 755 mmHg 79%
    01:00 +13°C° 0 mm 1 mps 755 mmHg 81%
    02:00 +13°C° 0 mm 1 mps 755 mmHg 83%
    03:00 +12°C° 0 mm 1 mps 755 mmHg 85%
    04:00 +12°C° 0 mm 1 mps 755 mmHg 85%
    05:00 +12°C° 0 mm 1 mps 756 mmHg 85%
    06:00 +12°C° 0 mm 1 mps 756 mmHg 86%
    07:00 +15°C° 0 mm 1 mps 756 mmHg 79%
    08:00 +18°C° 0 mm 1 mps 756 mmHg 72%
    09:00 +19°C° 0 mm 2 mps 756 mmHg 66%
    10:00 +20°C° 0 mm 2 mps 756 mmHg 61%
    11:00 +21°C° 0 mm 2 mps 756 mmHg 56%
    12:00 +24°C° 0 mm 2 mps 756 mmHg 51%
    13:00 +24°C° 0 mm 2 mps 755 mmHg 50%
    14:00 +25°C° 0 mm 2 mps 755 mmHg 49%
    15:00 +25°C° 0 mm 2 mps 755 mmHg 47%
    16:00 +25°C° 0 mm 2 mps 754 mmHg 51%
    17:00 +24°C° 0 mm 2 mps 754 mmHg 55%
    18:00 +24°C° 0 mm 2 mps 754 mmHg 59%
    19:00 +21°C° 0 mm 2 mps 754 mmHg 65%
    20:00 +19°C° 0 mm 2 mps 754 mmHg 71%
    21:00 +17°C° 0 mm 2 mps 754 mmHg 76%
    22:00 +16°C° 0 mm 2 mps 754 mmHg 78%
    23:00 +15°C° 0 mm 2 mps 754 mmHg 80%

    19 August, Sunday

    Time Temperature Precipitation Wind Pressure Humidity
    00:00 +15°C° 0 mm 2 mps 754 mmHg 81%
    01:00 +14°C° 0 mm 2 mps 754 mmHg 82%
    02:00 +14°C° 0 mm 2 mps 754 mmHg 83%
    03:00 +13°C° 0 mm 2 mps 754 mmHg 84%
    04:00 +13°C° 0 mm 2 mps 754 mmHg 84%
    05:00 +13°C° 0 mm 2 mps 753 mmHg 85%
    06:00 +13°C° 0 mm 2 mps 753 mmHg 86%
    07:00 +15°C° 0 mm 2 mps 753 mmHg 80%
    08:00 +17°C° 0 mm 3 mps 753 mmHg 74%
    09:00 +20°C° 0 mm 3 mps 753 mmHg 68%
    10:00 +21°C° 0 mm 4 mps 753 mmHg 63%
    11:00 +23°C° 0 mm 4 mps 752 mmHg 58%
    12:00 +25°C° 0 mm 5 mps 752 mmHg 52%
    13:00 +25°C° 0 mm 5 mps 752 mmHg 51%
    14:00 +26°C° 0 mm 5 mps 751 mmHg 50%
    15:00 +26°C° 0 mm 5 mps 751 mmHg 48%
    16:00 +26°C° 0 mm 4 mps 750 mmHg 52%
    17:00 +25°C° 0 mm 4 mps 750 mmHg 56%
    18:00 +25°C° 0 mm 3 mps 749 mmHg 59%
    19:00 +22°C° 0 mm 3 mps 749 mmHg 63%
    20:00 +20°C° 0 mm 3 mps 749 mmHg 66%
    21:00 +19°C° 0 mm 3 mps 749 mmHg 70%
    22:00 +18°C° 0.3 mm 3 mps 748 mmHg 73%
    23:00 +18°C° 0.3 mm 4 mps 748 mmHg 76%

    20 August, Monday

    Time Temperature Precipitation Wind Pressure Humidity
    00:00 +18°C° 0.3 mm 4 mps 748 mmHg 79%
    01:00 +17°C° 0.7 mm 3 mps 748 mmHg 84%
    02:00 +17°C° 0.7 mm 3 mps 748 mmHg 88%
    03:00 +16°C° 0.7 mm 2 mps 748 mmHg 92%
    04:00 +16°C° 0.3 mm 2 mps 748 mmHg 93%
    05:00 +16°C° 0.3 mm 2 mps 748 mmHg 95%
    06:00 +16°C° 0.3 mm 2 mps 748 mmHg 97%
    07:00 +16°C° 0.2 mm 2 mps 748 mmHg 95%
    08:00 +17°C° 0.2 mm 2 mps 748 mmHg 93%
    09:00 +17°C° 0.2 mm 2 mps 748 mmHg 91%
    10:00 +18°C° 0.1 mm 2 mps 748 mmHg 86%
    11:00 +19°C° 0.1 mm 2 mps 749 mmHg 80%
    12:00 +20°C° 0.1 mm 2 mps 749 mmHg 75%
    13:00 +20°C° 0.1 mm 2 mps 749 mmHg 69%
    14:00 +21°C° 0.1 mm 2 mps 749 mmHg 64%
    15:00 +21°C° 0.1 mm 2 mps 749 mmHg 58%
    16:00 +21°C° 0 mm 2 mps 749 mmHg 61%
    17:00 +21°C° 0 mm 2 mps 749 mmHg 64%
    18:00 +21°C° 0 mm 1 mps 749 mmHg 66%
    19:00 +20°C° 0 mm 1 mps 749 mmHg 70%
    20:00 +18°C° 0 mm 1 mps 749 mmHg 74%
    21:00 +16°C° 0 mm 1 mps 749 mmHg 77%
    22:00 +15°C° 0 mm 1 mps 749 mmHg 78%
    23:00 +15°C° 0 mm 1 mps 749 mmHg 79%
    Show more